Location: Briis
(48.6240°N, 2.1211°E)
Time: 16:07:17
(UTC+00:00)

Cosmos 1535 Rocket - Pass Details

Date: 25 September 2020
Orbit: 949 x 1003 km, 83.0° (Epoch: 21 October)

Event Time Altitude Azimuth Distance (km) Brightness Sun altitude
Rises 02:26:45 0° 351° (N) 3,736 7.9 -30.8°
Reaches altitude 10° 02:29:17 10° 352° (N) 2,785 7.2 -30.5°
Maximum altitude 02:35:44 84° 81° (E) 1,015 4.5 -29.7°
Enters shadow 02:36:26 72° 153° (SSE) 1,055 4.5 -29.6°
